カタログに戻る

ARIANE 1 DEB

運用中GTO
NORAD 27732·DEBRIS·🇫🇷 France

打ち上げ Dec 24, 1979 から Guiana Space Centre

Loading…

TLE

経年Source: Space-Track

元期: Sep 14, 2026, 13:11 UTC

1 27732U 79104S   26257.54978685  .00000460  00000-0  73863-1 0  9994
2 27732  16.7540 338.7340 7326007 236.8931  31.8730  1.93238128 87779

AllMySatでARIANE 1 DEBをリアルタイム追跡

Download on the App Store